Weather History for Montague, CA

Change the Weather History Date:

Thursday, December 13, 2012

  Actual Average Record
Temperature  
Mean Temperature 31 °F 35 °F  
Max Temperature 41 °F 44 °F 59 °F (1956)
Min Temperature 21 °F 26 °F 1 °F (1972)
Degree Days  
Heating Degree Days 34 30  
Month to date heating degree days 354 388  
Since 1 July heating degree days 1339 1694  
Cooling Degree Days 0 0  
Month to date cooling degree days 0 0  
Year to date cooling degree days 622 544  
Moisture  
Dew Point 24 °F    
Average Humidity 89    
Maximum Humidity 100    
Minimum Humidity 59    
Precipitation  
Precipitation 0.00 in 0.09 in 1.00 in (2001)
Month to date precipitation 2.03 1.03  
Year to date precipitation 11.97 16.84  
Sea Level Pressure  
Sea Level Pressure 29.99 in    
Wind  
Wind Speed 2 mph (North)    
Max Wind Speed 8 mph    
Max Gust Speed 10 mph    
Visibility 6 miles    
Events Fog    
T = Trace of Precipitation, MM = Missing Value Source: NWS Daily Summary

Daily Weather History Graph

Daily Weather History Graph

Search for Another Location

Airport:

Trip Planner

Search our weather history database for the weather conditions in past years. The results will help you decide how hot, cold, wet, or windy it might be!

Date:

Astronomy

Dec. 13, 2012 Rise Set
Actual Time 7:29 AM PST 4:39 PM PST
Civil Twilight 6:57 AM PST 5:11 PM PST
Nautical Twilight 6:22 AM PST 5:46 PM PST
Astronomical Twilight 5:48 AM PST 6:20 PM PST
Moon 7:42 AM PST (12/13) 5:28 PM PST (12/13)
Length of Visible Light 10h 13m
Length of Day
9h 10m
New Moon, 0% of the Moon is Illuminated
Dec 13
New Moon
Dec 19
First Quarter
Dec 28
Full
Jan 4
Last Quarter
Jan 11
New

Hourly Weather History & Observations

Time (PST) Temp. Windchill Dew Point Humidity Pressure Visibility Wind Dir Wind Speed Gust Speed Precip Events Conditions
12:53 AM 25.0 °F - 21.0 °F 85% 30.02 in 10.0 mi Calm Calm - N/A   Partly Cloudy
1:53 AM 24.1 °F - 21.0 °F 88% 30.02 in 10.0 mi Calm Calm - N/A   Clear
2:53 AM 21.9 °F - 19.0 °F 89% 30.03 in 10.0 mi Calm Calm - N/A   Clear
3:53 AM 21.9 °F 12.5 °F 18.0 °F 85% 30.03 in 10.0 mi North 8.1 mph - N/A   Clear
8:53 AM 21.0 °F - 21.0 °F 100% 30.08 in 0.2 mi Calm Calm - N/A Fog Light Freezing Fog
9:06 AM 23.0 °F - 23.0 °F 100% 29.98 in 0.5 mi Calm Calm - N/A Fog Light Freezing Fog
9:13 AM 23.0 °F - 23.0 °F 100% 29.98 in 2.0 mi Calm Calm - N/A   Mostly Cloudy
9:19 AM 24.8 °F - 23.0 °F 93% 29.98 in 5.0 mi Calm Calm - N/A   Scattered Clouds
9:25 AM 24.8 °F - 23.0 °F 93% 29.98 in 1.5 mi Calm Calm - N/A   Scattered Clouds
9:27 AM 24.8 °F - 21.2 °F 86% 29.98 in 0.8 mi Calm Calm - N/A   Mist
9:53 AM 25.0 °F 20.7 °F 24.1 °F 96% 30.08 in - NW 3.5 mph - N/A   Unknown
9:58 AM 24.8 °F - 23.0 °F 93% 29.99 in 0.2 mi Calm Calm - N/A Fog Light Freezing Fog
10:10 AM 24.8 °F - 24.8 °F 100% 29.99 in 0.8 mi Calm Calm - N/A   Mist
10:16 AM 26.6 °F - 24.8 °F 93% 29.98 in 1.8 mi Calm Calm - N/A   Overcast
10:24 AM 28.4 °F - 26.6 °F 93% 29.99 in 3.0 mi Calm Calm - N/A   Mostly Cloudy
10:37 AM 28.4 °F - 26.6 °F 93% 29.98 in 10.0 mi Calm Calm - N/A   Scattered Clouds
11:53 AM 33.1 °F - 27.0 °F 78% 30.03 in 10.0 mi Calm Calm - N/A   Clear
12:53 PM 35.1 °F - 28.9 °F 78% 30.00 in 10.0 mi Calm Calm - N/A   Clear
1:53 PM 37.9 °F 34.4 °F 28.0 °F 68% 29.97 in 10.0 mi SE 4.6 mph - N/A   Clear
5:53 PM 30.9 °F - 25.0 °F 79% 29.96 in 10.0 mi Calm Calm - N/A   Clear
6:53 PM 30.9 °F - 26.1 °F 82% 29.95 in 10.0 mi Calm Calm - N/A   Clear
7:53 PM 28.0 °F - 23.0 °F 81% 29.95 in 10.0 mi Calm Calm - N/A   Clear
8:53 PM 25.0 °F - 21.0 °F 85% 29.95 in 10.0 mi Calm Calm - N/A   Clear
10:53 PM 28.0 °F 20.0 °F 24.1 °F 85% 29.91 in 10.0 mi NNW 8.1 mph - N/A   Clear
11:53 PM 27.0 °F - 25.0 °F 92% 29.91 in 10.0 mi Calm Calm - N/A   Clear